TimeEST,TemperatureF,Dew PointF,Humidity,Sea Level PressureIn,VisibilityMPH,Wind Direction,Wind SpeedMPH,Gust SpeedMPH,PrecipitationIn,Events,Conditions,WindDirDegrees,DateUTC
12:54 AM,37.0,19.0,48,29.99,10.0,North,6.9,-,N/A,,Overcast,360,2012-11-05 05:54:00
1:54 AM,37.0,19.0,48,29.99,10.0,North,6.9,-,N/A,,Overcast,350,2012-11-05 06:54:00
2:54 AM,36.0,19.0,50,30.00,10.0,Variable,4.6,-,N/A,,Overcast,0,2012-11-05 07:54:00
3:54 AM,36.0,18.0,48,30.00,10.0,Variable,4.6,-,N/A,,Overcast,0,2012-11-05 08:54:00
4:54 AM,36.0,19.0,50,30.00,10.0,Calm,Calm,-,N/A,,Overcast,0,2012-11-05 09:54:00
5:54 AM,36.0,19.0,50,30.00,10.0,NNW,3.5,-,N/A,,Overcast,340,2012-11-05 10:54:00
6:54 AM,35.1,19.9,54,30.02,10.0,Calm,Calm,-,N/A,,Overcast,0,2012-11-05 11:54:00
7:54 AM,36.0,19.9,52,30.04,10.0,Calm,Calm,-,N/A,,Overcast,0,2012-11-05 12:54:00
8:54 AM,36.0,23.0,59,30.05,10.0,NE,5.8,-,N/A,,Overcast,50,2012-11-05 13:54:00
9:54 AM,37.0,19.0,48,30.05,10.0,WNW,5.8,-,N/A,,Overcast,300,2012-11-05 14:54:00
10:54 AM,37.0,18.0,46,30.05,10.0,WNW,9.2,-,N/A,,Overcast,290,2012-11-05 15:54:00
11:54 AM,37.9,15.1,39,30.04,10.0,NW,9.2,-,N/A,,Overcast,310,2012-11-05 16:54:00
12:54 PM,37.9,14.0,38,30.03,10.0,West,12.7,20.7,N/A,,Overcast,280,2012-11-05 17:54:00
1:54 PM,37.9,15.1,39,30.03,10.0,NW,9.2,-,N/A,,Overcast,310,2012-11-05 18:54:00
2:54 PM,39.0,14.0,36,30.04,10.0,NW,8.1,-,N/A,,Overcast,310,2012-11-05 19:54:00
3:54 PM,36.0,15.1,43,30.06,10.0,NW,4.6,-,N/A,,Mostly Cloudy,320,2012-11-05 20:54:00
4:54 PM,36.0,12.9,39,30.08,10.0,NNW,4.6,-,N/A,,Overcast,340,2012-11-05 21:54:00
5:54 PM,35.1,12.9,40,30.10,10.0,North,4.6,-,N/A,,Mostly Cloudy,360,2012-11-05 22:54:00
6:54 PM,34.0,12.0,40,30.12,10.0,Variable,4.6,-,N/A,,Partly Cloudy,0,2012-11-05 23:54:00
7:54 PM,34.0,10.9,38,30.14,10.0,North,4.6,-,N/A,,Mostly Cloudy,360,2012-11-06 00:54:00
8:54 PM,33.1,12.0,42,30.15,10.0,Variable,3.5,-,N/A,,Overcast,0,2012-11-06 01:54:00
9:54 PM,33.1,10.9,40,30.15,10.0,NW,6.9,-,N/A,,Scattered Clouds,320,2012-11-06 02:54:00
10:54 PM,30.0,14.0,51,30.15,10.0,Calm,Calm,-,N/A,,Partly Cloudy,0,2012-11-06 03:54:00
11:54 PM,32.0,14.0,48,30.15,10.0,WNW,6.9,-,N/A,,Mostly Cloudy,290,2012-11-06 04:54:00